Regional Weather Roundup
Issued by NWS Little Rock, AR

Home | Current Version | Previous Version | Text Only | Print | Product List | Glossary On
Versions: 1 2 3 4 5 6 7 8 9 10 11 12 13 14 15 16 17 18 19 20 21 22 23 24 25 26 27
000
ASUS44 KLZK 280705
RWRLZK

WEATHER ROUNDUP FOR ARKANSAS
NATIONAL WEATHER SERVICE LITTLE ROCK AR
200 AM CDT SUN AUG 28 2016

NOTE: "FAIR" INDICATES FEW OR NO CLOUDS BELOW 12,000 FEET WITH NO
SIGNIFICANT WEATHER AND/OR OBSTRUCTIONS TO VISIBILITY.

ARZ001-003-010-029-280800-
NORTHWEST ARKANSAS

CITY           SKY/WX    TMP DP  RH WIND       PRES   REMARKS
FAYETTEVILLE   MOCLDY    69  69 100 CALM      30.10F
FORT SMITH     PTCLDY    76  72  87 NE5       30.06S
HARRISON       CLEAR     70  69  97 E5        30.12S
BENTONVILLE    PTCLDY    73  66  78 CALM      30.10F
ROGERS         PTCLDY    73  72  96 E6        30.11F
SILOAM SPGS    PTCLDY    73  64  73 E6        30.10F
HIGHFILL       PTCLDY    73  71  93 E3        30.10S
$$

ARZ004-005-016-280800-
NORTH CENTRAL ARKANSAS

CITY           SKY/WX    TMP DP  RH WIND       PRES   REMARKS
BATESVILLE     CLOUDY    73  72  94 W3        30.08S VSB 1/2
FLIPPIN        CLOUDY    72  68  88 CALM      30.07F
MTN HOME       CLEAR     72  72 100 SE3       30.10S
$$

ARZ040-041-280800-
WEST CENTRAL ARKANSAS

CITY           SKY/WX    TMP DP  RH WIND       PRES   REMARKS
MENA           CLOUDY    70  70 100 CALM      30.08S
$$

ARZ009-017-025-026-028-280800-
NORTHEAST ARKANSAS

CITY           SKY/WX    TMP DP  RH WIND       PRES   REMARKS
CORNING          N/A     75  75 100 N5        30.08S
JONESBORO      CLEAR     74  71  91 NE5       30.06F
NEWPORT        PTCLDY    74  73  97 NE3       30.07S
WALNUT RIDGE   CLEAR     73  70  88 NE5       30.07S
BLYTHEVILLE    CLEAR     74  73  97 NE3       30.07S
$$

ARZ022-023-033-042-044-280800-
CENTRAL ARKANSAS

CITY           SKY/WX    TMP DP  RH WIND       PRES   REMARKS
LITTLE ROCK    PTCLDY    79  73  82 CALM      30.05S
N LITTLE ROCK    N/A     77  72  85 CALM      30.02F
JACKSONVILLE   CLOUDY    75  75  99 CALM      30.04F
SEARCY         CLEAR     75  74  96 CALM      30.07S
HOT SPRINGS    CLEAR     74  72  93 CALM      30.05F
RUSSELLVILLE   PTCLDY    73  73 100 CALM      30.05F FOG
$$

ARZ036-280800-
EAST ARKANSAS

CITY           SKY/WX    TMP DP  RH WIND       PRES   REMARKS
WEST MEMPHIS   CLEAR     75  73  93 N5        30.04F
$$

ARZ050-053-066-070-073-280800-
SOUTHWEST ARKANSAS

CITY           SKY/WX    TMP DP  RH WIND       PRES   REMARKS
ARKADELPHIA    FAIR      76  74  93 CALM      30.03F
TEXARKANA      PTCLDY    75  72  90 SW5       30.03S
EL DORADO      CLOUDY    75  73  93 CALM      30.02F
DE QUEEN       CLEAR     72  72 100 CALM      30.02S FOG
$$

ARZ056-057-069-280800-
SOUTHEAST ARKANSAS

CITY           SKY/WX    TMP DP  RH WIND       PRES   REMARKS
PINE BLUFF     PTCLDY    76  72  87 CALM      30.03S
STUTTGART      PTCLDY    75  70  83 NE5       30.04S
MONTICELLO     CLOUDY    79  74  84 CALM      30.02F

$$






USA.gov is the U.S. government's official web portal to all federal, state and local government web resources and services.